TimeCDT,TemperatureF,Dew PointF,Humidity,Sea Level PressureIn,VisibilityMPH,Wind Direction,Wind SpeedMPH,Gust SpeedMPH,PrecipitationIn,Events,Conditions,WindDirDegrees,DateUTC
12:16 AM,19.4,15.8,86,30.29,10.0,Calm,Calm,-,N/A,,Clear,0,2013-03-28 05:16:00
12:37 AM,19.4,15.8,86,30.29,10.0,Calm,Calm,-,N/A,,Clear,0,2013-03-28 05:37:00
12:56 AM,17.6,14.0,86,30.29,10.0,Calm,Calm,-,N/A,,Clear,0,2013-03-28 05:56:00
1:16 AM,17.6,14.0,86,30.29,10.0,Calm,Calm,-,N/A,,Clear,0,2013-03-28 06:16:00
1:37 AM,17.6,12.2,79,30.30,10.0,Calm,Calm,-,N/A,,Clear,0,2013-03-28 06:37:00
1:56 AM,15.8,12.2,86,30.30,10.0,Calm,Calm,-,N/A,,Clear,0,2013-03-28 06:56:00
2:16 AM,15.8,12.2,86,30.30,10.0,Calm,Calm,-,N/A,,Clear,0,2013-03-28 07:16:00
2:37 AM,14.0,12.2,93,30.30,10.0,Calm,Calm,-,N/A,,Clear,0,2013-03-28 07:37:00
2:56 AM,14.0,10.4,86,30.29,10.0,Calm,Calm,-,N/A,,Clear,0,2013-03-28 07:56:00
3:16 AM,12.2,10.4,92,30.29,10.0,Calm,Calm,-,N/A,,Clear,0,2013-03-28 08:16:00
3:37 AM,12.2,10.4,92,30.29,10.0,Calm,Calm,-,N/A,,Clear,0,2013-03-28 08:37:00
3:56 AM,12.2,8.6,85,30.29,10.0,Calm,Calm,-,N/A,,Clear,0,2013-03-28 08:56:00
4:16 AM,12.2,8.6,85,30.29,10.0,Calm,Calm,-,N/A,,Clear,0,2013-03-28 09:16:00
4:37 AM,12.2,8.6,85,30.29,10.0,Calm,Calm,-,N/A,,Clear,0,2013-03-28 09:37:00
4:56 AM,10.4,8.6,92,30.29,10.0,Calm,Calm,-,N/A,,Clear,0,2013-03-28 09:56:00
5:16 AM,10.4,8.6,92,30.29,10.0,Calm,Calm,-,N/A,,Clear,0,2013-03-28 10:16:00
5:37 AM,10.4,6.8,85,30.29,10.0,Calm,Calm,-,N/A,,Clear,0,2013-03-28 10:37:00
5:57 AM,8.6,6.8,92,30.29,10.0,Calm,Calm,-,N/A,,Clear,0,2013-03-28 10:57:00
6:16 AM,8.6,6.8,92,30.30,10.0,Calm,Calm,-,N/A,,Clear,0,2013-03-28 11:16:00
6:37 AM,8.6,6.8,92,30.30,10.0,Calm,Calm,-,N/A,,Clear,0,2013-03-28 11:37:00
6:57 AM,6.8,5.0,92,30.30,10.0,Calm,Calm,-,N/A,,Clear,0,2013-03-28 11:57:00
7:16 AM,8.6,5.0,85,30.31,10.0,Calm,Calm,-,N/A,,Clear,0,2013-03-28 12:16:00
7:37 AM,8.6,5.0,85,30.31,10.0,Calm,Calm,-,N/A,,Clear,0,2013-03-28 12:37:00
7:56 AM,8.6,6.8,92,30.31,10.0,Calm,Calm,-,N/A,,Clear,0,2013-03-28 12:56:00
8:17 AM,12.2,8.6,85,30.30,10.0,Calm,Calm,-,N/A,,Clear,0,2013-03-28 13:17:00
8:36 AM,17.6,10.4,73,30.30,10.0,Calm,Calm,-,N/A,,Clear,0,2013-03-28 13:36:00
8:57 AM,21.2,12.2,68,30.30,10.0,Calm,Calm,-,N/A,,Clear,0,2013-03-28 13:57:00
9:16 AM,24.8,14.0,64,30.30,10.0,Calm,Calm,-,N/A,,Clear,0,2013-03-28 14:16:00
9:36 AM,28.4,15.8,59,30.30,10.0,Calm,Calm,-,N/A,,Clear,0,2013-03-28 14:36:00
9:57 AM,30.2,15.8,55,30.30,10.0,Calm,Calm,-,N/A,,Clear,0,2013-03-28 14:57:00
10:16 AM,33.8,15.8,48,30.30,10.0,Calm,Calm,-,N/A,,Clear,0,2013-03-28 15:16:00
10:36 AM,35.6,15.8,44,30.30,10.0,Calm,Calm,-,N/A,,Clear,0,2013-03-28 15:36:00
10:57 AM,37.4,15.8,41,30.30,10.0,Calm,Calm,-,N/A,,Clear,0,2013-03-28 15:57:00
11:16 AM,39.2,15.8,39,30.30,10.0,Calm,Calm,-,N/A,,Clear,0,2013-03-28 16:16:00
11:36 AM,39.2,14.0,36,30.30,10.0,Calm,Calm,-,N/A,,Clear,0,2013-03-28 16:36:00
11:57 AM,41.0,15.8,36,30.29,10.0,Calm,Calm,-,N/A,,Clear,0,2013-03-28 16:57:00
12:16 PM,41.0,14.0,33,30.29,10.0,Calm,Calm,-,N/A,,Clear,0,2013-03-28 17:16:00
12:36 PM,41.0,14.0,33,30.29,10.0,Calm,Calm,-,N/A,,Clear,0,2013-03-28 17:36:00
12:57 PM,42.8,14.0,31,30.29,10.0,West,4.6,-,N/A,,Clear,280,2013-03-28 17:57:00
1:16 PM,42.8,12.2,29,30.28,10.0,Calm,Calm,-,N/A,,Clear,0,2013-03-28 18:16:00
1:36 PM,42.8,15.8,34,30.27,10.0,Calm,Calm,-,N/A,,Clear,0,2013-03-28 18:36:00
1:57 PM,42.8,14.0,31,30.27,10.0,NW,4.6,-,N/A,,Clear,310,2013-03-28 18:57:00
2:16 PM,42.8,12.2,29,30.26,10.0,Calm,Calm,-,N/A,,Clear,0,2013-03-28 19:16:00
2:36 PM,44.6,14.0,29,30.26,10.0,West,4.6,-,N/A,,Clear,280,2013-03-28 19:36:00
2:57 PM,44.6,12.2,27,30.25,10.0,Calm,Calm,-,N/A,,Clear,0,2013-03-28 19:57:00
3:16 PM,44.6,12.2,27,30.25,10.0,NW,3.5,-,N/A,,Clear,320,2013-03-28 20:16:00
3:37 PM,44.6,14.0,29,30.24,10.0,WNW,5.8,-,N/A,,Clear,290,2013-03-28 20:37:00
3:57 PM,44.6,14.0,29,30.24,10.0,West,8.1,-,N/A,,Clear,280,2013-03-28 20:57:00
4:16 PM,44.6,14.0,29,30.24,10.0,WNW,8.1,-,N/A,,Clear,290,2013-03-28 21:16:00
4:37 PM,44.6,12.2,27,30.24,10.0,NW,5.8,-,N/A,,Clear,310,2013-03-28 21:37:00
4:57 PM,44.6,12.2,27,30.23,10.0,Calm,Calm,-,N/A,,Clear,0,2013-03-28 21:57:00
5:16 PM,44.6,12.2,27,30.23,10.0,Calm,Calm,-,N/A,,Clear,0,2013-03-28 22:16:00
5:37 PM,44.6,12.2,27,30.23,10.0,Calm,Calm,-,N/A,,Clear,0,2013-03-28 22:37:00
5:57 PM,44.6,12.2,27,30.23,10.0,Calm,Calm,-,N/A,,Clear,0,2013-03-28 22:57:00
6:16 PM,44.6,14.0,29,30.23,10.0,WNW,3.5,-,N/A,,Clear,290,2013-03-28 23:16:00
6:37 PM,44.6,12.2,27,30.23,10.0,Calm,Calm,-,N/A,,Clear,0,2013-03-28 23:37:00
6:57 PM,44.6,12.2,27,30.22,10.0,Calm,Calm,-,N/A,,Clear,0,2013-03-28 23:57:00
7:16 PM,44.6,12.2,27,30.23,10.0,Calm,Calm,-,N/A,,Clear,0,2013-03-29 00:16:00
7:37 PM,37.4,12.2,36,30.23,10.0,Calm,Calm,-,N/A,,Clear,0,2013-03-29 00:37:00
7:57 PM,35.6,17.6,48,30.23,10.0,Calm,Calm,-,N/A,,Clear,0,2013-03-29 00:57:00
8:16 PM,32.0,19.4,60,30.23,10.0,Calm,Calm,-,N/A,,Clear,0,2013-03-29 01:16:00
8:37 PM,30.2,19.4,64,30.24,10.0,Calm,Calm,-,N/A,,Clear,0,2013-03-29 01:37:00
8:57 PM,28.4,17.6,64,30.24,10.0,Calm,Calm,-,N/A,,Clear,0,2013-03-29 01:57:00
9:16 PM,28.4,19.4,69,30.24,10.0,Calm,Calm,-,N/A,,Clear,0,2013-03-29 02:16:00
9:37 PM,26.6,19.4,74,30.24,10.0,Calm,Calm,-,N/A,,Clear,0,2013-03-29 02:37:00
9:56 PM,26.6,19.4,74,30.24,10.0,Calm,Calm,-,N/A,,Clear,0,2013-03-29 02:56:00
10:17 PM,26.6,19.4,74,30.24,10.0,Calm,Calm,-,N/A,,Clear,0,2013-03-29 03:17:00
10:36 PM,24.8,19.4,80,30.24,10.0,Calm,Calm,-,N/A,,Clear,0,2013-03-29 03:36:00
10:56 PM,24.8,19.4,80,30.24,10.0,Calm,Calm,-,N/A,,Clear,0,2013-03-29 03:56:00
11:17 PM,24.8,17.6,74,30.24,10.0,Calm,Calm,-,N/A,,Clear,0,2013-03-29 04:17:00
11:37 PM,23.0,19.4,86,30.24,10.0,Calm,Calm,-,N/A,,Clear,0,2013-03-29 04:37:00
11:56 PM,21.2,17.6,86,30.24,10.0,Calm,Calm,-,N/A,,Clear,0,2013-03-29 04:56:00